Vertical_Velocity
2 2 2 2 2 2 2 2 2 2 2 1 1 1 0 0 1 2 3 3 2 2 1 0 -0 -1 -1 -2 -1 -1 1 4 8 10 8 4 2 -0 -3 -5 -1 3 5 6 5 4 4 4 5 5 4 3 3 4 5 5 4 2 1 -1 -0 4 10 12 6 1 0 3 4
2 2 2 3 4 4 4 4 4 4 4 4 3 3 2 2 2 2 1 1 2 2 3 4 4 4 3 2 2 3 6 8 9 5 -0 -4 -3 -3 -2 -0 2 2 3 2 2 2 2 3 4 4 4 4 6 6 6 3 2 0 -2 -3 -1 3 8 12 8 3 0 1 0
3 3 3 3 3 3 3 3 4 4 4 4 4 3 3 3 3 3 2 2 2 2 3 4 5 6 6 6 8 10 12 11 7 1 -4 -6 -4 -1 2 4 4 3 1 -0 0 -0 -1 -1 0 1 2 3 4 3 1 -2 -2 -2 -1 1 3 5 8 9 9 8 5 2 -1
3 3 2 2 2 2 1 1 1 1 1 0 0 0 1 2 2 2 2 2 3 3 3 3 3 4 4 6 11 12 11 8 4 -1 -5 -5 -2 1 4 6 5 3 1 -1 -1 -1 -1 -1 0 1 2 3 3 2 -0 -3 -3 -0 3 6 6 5 4 5 7 7 6 2 3
2 1 1 1 0 0 0 0 -0 -0 -0 -1 -0 -0 0 1 1 1 1 2 2 2 2 3 2 3 4 7 9 8 5 2 0 -2 -3 -2 0 2 3 3 2 2 0 -1 -2 -3 -3 -2 -0 0 1 2 1 -0 -3 -4 -2 -0 1 2 3 3 2 1 1 2 3 5 6
-1 -1 -1 -1 -1 -1 -1 -1 -1 -1 -1 -0 0 0 1 2 2 2 1 1 1 2 4 6 6 5 5 7 6 3 -0 -2 -1 -1 -1 -0 0 1 1 0 0 1 1 0 -1 -2 -3 -3 -3 -3 -2 -0 -0 -1 -3 -3 -3 -3 -2 -2 -1 -1 -0 -0 -0 -1 -0 2 4
-2 -2 -2 -2 -2 -1 -1 -0 -0 0 0 1 1 2 3 3 2 1 1 -0 -0 1 3 7 6 3 0 0 2 1 -1 -3 -1 -0 1 1 -0 -0 -0 0 1 1 2 1 0 -1 -2 -3 -4 -3 -2 -1 -0 -0 -0 -1 -2 -3 -3 -3 -2 -1 -1 -2 -3 -3 -4 -3 -2
-0 -0 -0 -1 -1 -1 -1 -0 0 1 2 3 4 4 3 1 -1 -3 -4 -4 -3 -1 2 5 1 -2 -3 -1 1 -0 -3 -4 -4 -2 -0 0 1 1 1 2 1 1 0 1 1 -1 -2 -2 0 0 -1 -2 -2 -1 -1 -1 -1 -2 -3 -4 -3 -3 -3 -2 -3 -3 -4 -3 -3
0 0 -0 -1 -0 -0 0 1 2 3 4 4 3 1 -2 -4 -6 -6 -6 -5 -4 -2 -1 0 -3 -4 -3 -1 0 -2 -4 -6 -6 -4 -3 -1 0 1 2 2 2 1 0 0 0 -1 -3 -2 2 3 1 -3 -4 -4 -3 -3 -2 -2 -3 -4 -4 -4 -4 -3 -3 -2 -1 -1 -1
0 -0 -1 -1 0 1 2 3 3 2 1 -1 -3 -5 -6 -6 -5 -4 -3 -3 -3 -3 -3 -3 -5 -5 -3 -2 -0 -0 -1 -2 -3 -3 -3 -2 -0 1 1 1 1 1 1 1 1 -0 -2 -3 -2 -2 -2 -3 -2 -2 -2 -2 -2 -2 -2 -3 -4 -4 -4 -4 -3 -2 -0 0 0
-0 -1 -1 -0 0 1 1 1 -0 -2 -4 -6 -6 -6 -4 -3 -2 -1 -1 -1 -2 -3 -3 -3 -4 -3 -2 -1 0 2 2 3 3 2 2 2 2 2 2 1 2 2 2 2 2 1 -1 -2 -2 -1 -0 1 1 1 1 0 0 -1 -2 -3 -3 -4 -4 -4 -3 -2 -0 1 1
-0 -1 -1 -0 -0 -1 -2 -3 -4 -5 -5 -4 -4 -3 -1 -0 0 0 0 0 -1 -2 -3 -3 -3 -2 -1 1 1 2 4 5 5 4 4 3 2 2 2 2 2 2 2 2 2 1 1 2 3 4 5 4 3 2 2 1 1 1 0 -1 -3 -4 -5 -5 -3 -2 -0 0 1
-1 -1 -1 -1 -2 -2 -3 -3 -3 -3 -2 -1 -1 -1 -0 0 1 1 0 0 -1 -2 -2 -2 -2 -1 -0 1 1 2 2 3 3 2 2 1 1 0 0 -0 0 1 2 2 2 1 1 2 3 4 4 3 2 1 1 1 2 4 4 3 -1 -4 -6 -6 -5 -3 -1 -0 1
-2 -2 -1 -1 -1 -1 -1 -1 -1 -1 -1 -0 -0 -0 -0 -0 0 0 0 0 -0 -0 -1 -1 -1 -0 0 0 0 0 0 0 0 -0 -1 -1 -1 -2 -2 -2 -2 -1 -1 -1 -1 -1 -1 -1 -0 -0 -0 -1 -0 -0 0 1 3 6 7 7 4 -0 -4 -7 -7 -5 -3 -1 0
-2 -1 -1 -0 -0 -0 -0 -0 -0 -0 -0 -0 0 -0 -0 -0 -0 -0 0 0 0 -0 -0 -1 -0 -0 -0 -0 -0 -1 -1 -1 -1 -2 -2 -2 -2 -3 -3 -3 -3 -3 -3 -3 -3 -3 -3 -3 -3 -3 -3 -2 -1 -0 0 1 4 6 8 8 7 4 -1 -6 -7 -6 -4 -2 -0
-2 -1 -0 0 0 -0 -0 -1 -0 -0 -0 -0 -0 -1 -1 -1 -1 -0 0 0 0 -0 -1 -1 -1 -1 -1 -1 -1 -1 -1 -1 -2 -2 -3 -3 -2 -3 -3 -3 -3 -3 -3 -3 -3 -3 -4 -4 -4 -4 -4 -3 -2 -1 -0 1 3 5 7 9 8 5 0 -4 -6 -6 -4 -2 -1
-1 -1 -0 -0 0 -0 -0 -1 -1 -0 -0 -0 -1 -1 -1 -2 -1 -1 -0 -0 -0 -1 -1 -1 -1 -1 -2 -2 -1 -1 -1 -1 -1 -2 -2 -2 -2 -3 -3 -3 -3 -2 -2 -3 -3 -3 -3 -3 -4 -5 -5 -4 -3 -2 -1 0 2 5 7 9 7 3 -0 -3 -4 -4 -4 -2 -2
-0 -0 -0 -0 -0 -0 -0 -0 -1 -1 -1 -0 -0 -1 -2 -2 -2 -1 -1 -1 -1 -1 -0 -1 -2 -2 -2 -2 -1 -1 -1 -2 -2 -2 -2 -1 -2 -2 -2 -2 -1 -1 -1 -1 -2 -1 -1 -1 -3 -5 -6 -6 -5 -3 -2 -0 2 4 6 8 5 2 -1 -3 -3 -3 -3 -3 -2
0 0 0 0 -0 -0 -1 -1 -1 -1 -1 -1 -1 -1 -2 -2 -2 -1 -1 -1 -1 -1 -1 -1 -2 -2 -2 -2 -1 -1 -1 -2 -1 -1 -1 -1 -1 -1 -1 -1 -0 -0 -0 -1 -1 -1 -1 -0 -2 -3 -5 -7 -6 -5 -3 -0 1 3 5 5 3 0 -2 -3 -3 -3 -2 -2 -2
0 0 -0 -0 -1 -1 -1 -1 -1 -2 -2 -1 -1 -1 -1 -1 -1 -1 -1 -1 -1 -1 -1 -1 -1 -1 -1 -1 -1 -1 -1 -0 -0 -0 -0 -1 -1 -1 -1 -1 -1 -0 -0 -1 -1 -1 -1 -1 -2 -2 -3 -5 -6 -5 -3 -1 0 2 2 3 1 -0 -2 -3 -2 -2 -1 -1 -1
-0 -0 -1 -1 -1 -2 -2 -2 -2 -1 -1 -1 -0 -0 0 0 -0 -1 -1 -1 -1 -1 -1 -1 -1 -1 -1 -1 -1 -1 -0 0 0 -0 -0 -1 -1 -1 -1 -1 -1 -1 -1 -1 -0 -1 -1 -2 -2 -2 -2 -3 -4 -4 -3 -2 -0 1 1 1 -0 -1 -2 -2 -2 -1 -0 -1 -0
-1 -1 -1 -1 -2 -2 -2 -2 -1 -1 -0 0 0 0 0 -0 -1 -1 -2 -2 -2 -2 -1 -1 -0 -0 -0 -1 -1 -2 -1 -1 -1 -1 -2 -1 -1 -1 -1 -1 -1 -1 -1 -1 -0 -0 -1 -1 -2 -2 -2 -2 -3 -3 -2 -1 -0 0 1 1 -0 -1 -1 -1 -1 -0 -0 -0 0
-1 -1 -1 -1 -1 -1 -1 -1 -0 -0 0 0 0 -0 -1 -1 -1 -2 -2 -2 -2 -2 -1 0 0 0 -0 -1 -2 -2 -2 -2 -3 -3 -3 -3 -2 -2 -2 -2 -2 -2 -1 -1 -1 -0 -1 -1 -1 -2 -2 -2 -2 -1 -1 0 0 1 1 1 1 1 1 1 0 0 1 1 1
-1 -1 -1 -1 -0 -0 -0 -0 -0 -0 -0 -0 -1 -1 -1 -1 -2 -2 -2 -1 -1 -0 0 1 1 0 0 -0 -1 -1 -2 -2 -2 -2 -2 -2 -2 -2 -2 -2 -2 -2 -2 -1 -1 -1 -1 -1 -1 -1 -2 -2 -2 -1 -0 0 1 1 1 1 2 3 3 2 1 1 1 1 -0
-0 -0 -0 -0 -0 -0 -0 -0 -1 -1 -1 -1 -1 -1 -1 -1 -1 -1 -1 -1 -0 1 1 1 1 0 -0 -1 -1 -2 -2 -2 -2 -2 -2 -2 -2 -2 -2 -2 -2 -2 -2 -2 -1 -1 -1 -1 -1 -1 -2 -2 -2 -1 0 1 1 1 1 2 2 3 2 2 1 0 -0 -1 -2
0 -0 -0 -1 -1 -1 -1 -1 -1 -1 -1 -1 -1 -1 -1 -1 -1 -1 -1 -0 0 1 1 1 0 -0 -1 -2 -2 -2 -2 -2 -2 -2 -2 -2 -2 -2 -2 -2 -2 -2 -2 -2 -2 -1 -1 -0 -0 -1 -1 -2 -2 -1 -0 0 1 1 1 1 1 1 1 0 -0 -1 -2 -3 -5
-0 -1 -1 -1 -1 -1 -1 -1 -1 -1 -1 -1 -1 -1 -1 -1 -1 -1 -0 1 1 1 0 -0 -0 -1 -1 -1 -1 -1 -2 -2 -2 -2 -2 -2 -2 -2 -2 -1 -1 -2 -2 -2 -2 -1 -1 -1 -1 -1 -2 -2 -2 -2 -1 -1 -0 -0 0 0 1 1 1 1 -0 -1 -3 -4 -5
-0 -1 -1 -1 -1 -1 -0 -0 -0 -0 -0 -0 -1 -1 -1 -1 -1 0 1 2 1 1 -0 -0 -0 -0 -0 0 -0 -0 -1 -1 -2 -2 -2 -2 -2 -1 -1 -1 -1 -1 -2 -2 -1 -1 -1 -1 -1 -1 -1 -2 -2 -2 -2 -1 -1 -0 0 1 2 3 2 2 0 -1 -3 -4 -4
-0 -0 -0 -0 -0 0 0 0 0 -0 -0 -1 -1 -1 -1 -0 1 1 2 2 1 0 -0 -1 -1 -0 0 0 0 0 -0 -1 -1 -2 -2 -1 -1 -1 -1 -1 -1 -1 -1 -1 -1 -1 -1 -0 -0 -1 -1 -1 -1 -1 -0 -0 0 1 2 2 3 3 3 2 0 -1 -2 -2 -2
0 0 0 0 0 0 0 0 -0 -0 -1 -1 -1 -0 0 1 2 2 2 1 1 -0 -1 -1 -1 -0 -0 0 0 0 -0 -1 -2 -2 -1 -1 -0 -0 -0 -0 -1 -1 -1 -1 -1 -0 -0 0 0 -0 -1 -1 -0 0 0 1 1 2 2 2 2 2 1 -0 -1 -1 -1 -1 -0
1 1 0 0 0 0 0 -0 -0 -1 -1 -1 -0 0 1 2 2 1 1 0 -0 -1 -1 -1 -1 -0 -0 0 1 0 -0 -1 -2 -2 -1 -1 -0 -0 -0 -0 -0 -0 -0 -0 -0 0 0 0 -0 -0 -1 -1 -0 0 0 1 1 1 1 1 -0 -1 -2 -3 -3 -2 -1 -1 -1
1 1 0 0 0 -0 -0 -0 -1 -1 -0 0 1 1 1 1 1 0 -0 -1 -1 -1 -1 -1 -0 0 1 1 0 -0 -1 -2 -2 -2 -2 -1 -1 -0 -0 -0 -1 -1 -0 -0 -0 -0 -1 -1 -1 -2 -2 -1 -1 -0 -0 0 -0 -0 -1 -2 -3 -3 -3 -3 -3 -2 -2 -2 -1
1 1 0 0 -0 -0 -0 -0 -0 -0 0 1 1 1 1 0 0 -0 -1 -1 -2 -2 -1 -0 0 0 0 0 -0 -1 -2 -2 -2 -2 -2 -1 -1 -1 -1 -1 -1 -2 -2 -2 -2 -2 -2 -3 -3 -2 -2 -2 -1 -1 -1 -1 -2 -2 -2 -3 -3 -2 -2 -2 -2 -1 -1 -1 -0
1 0 0 -0 -0 -1 -1 -0 0 1 1 1 1 1 0 -0 -1 -1 -1 -1 -1 -1 -1 -0 -0 -0 -1 -1 -1 -2 -2 -3 -3 -2 -2 -1 -1 -1 -1 -2 -2 -2 -2 -2 -3 -3 -3 -3 -2 -2 -2 -1 -1 -1 -1 -1 -1 -1 -1 -1 -1 -1 -0 -0 -0 -0 0 0 0
0 0 -0 -0 -1 -1 -0 0 1 1 2 1 1 0 -0 -1 -1 -1 -1 -1 -1 -1 -1 -1 -1 -1 -1 -1 -1 -2 -2 -2 -2 -2 -2 -1 -1 -1 -1 -2 -2 -2 -2 -2 -2 -2 -1 -1 -1 -0 -0 -0 -0 -0 -0 -0 -0 -0 -0 -0 -0 0 0 0 0 0 0 0 0
0 0 -0 -0 -0 -0 0 1 1 1 1 1 0 -0 -0 -1 -1 -1 -1 -1 -1 -1 -1 -1 -1 -1 -1 -1 -2 -2 -2 -2 -2 -2 -1 -1 -0 -0 -0 -1 -1 -1 -1 -1 -1 -1 -0 -0 0 0 0 0 0 0 0 0 -0 -0 -0 0 0 0 0 0 0 -0 -0 -0 -0
0 0 -0 -0 -0 0 0 1 1 1 1 0 -0 -0 -0 -1 -1 -1 -1 -0 -0 -1 -1 -1 -1 -1 -1 -1 -2 -2 -2 -2 -1 -1 -1 -0 -0 -0 -0 -1 -1 -1 -1 -1 -1 -0 -0 -0 -0 -0 -0 -0 -0 -0 -0 -0 -0 -0 -0 -0 -0 -0 -0 -0 -0 -1 -1 -1 -1
-0 -0 -0 0 0 0 0 1 1 0 0 -0 -0 -0 -1 -1 -2 -1 -1 -0 -1 -1 -2 -2 -2 -1 -1 -1 -1 -2 -2 -2 -1 -1 -0 -0 -0 -0 -0 -1 -1 -1 -1 -1 -1 -1 -1 -0 -0 -0 -0 -0 -0 -0 -0 -0 -0 -0 -0 -0 -0 -1 -1 -1 -1 -1 -1 -1 -1
-0 -0 0 0 0 0 0 0 0 0 -0 -0 -1 -1 -1 -2 -2 -2 -2 -1 -1 -1 -1 -2 -2 -2 -1 -1 -1 -1 -1 -1 -1 -0 -0 -0 -0 -0 -1 -1 -1 -1 -1 -1 -1 -1 -1 -0 -0 -0 -0 -0 -0 -0 -0 -0 -1 -1 -1 -1 -1 -1 -1 -1 -1 -0 -0 -0 -0
0 0 1 0 0 0 0 0 -0 -0 -0 -1 -1 -1 -2 -2 -2 -2 -2 -1 -1 -1 -1 -1 -1 -1 -1 -1 -1 -1 -1 -0 -0 -0 -0 -0 -0 -1 -1 -1 -1 -1 -1 -1 -1 -0 -0 -0 -0 -0 -0 -0 -1 -1 -1 -1 -1 -1 -1 -1 -1 -1 -1 -1 -1 -0 -0 -0 0
0 1 1 1 1 1 0 -0 -0 -1 -1 -1 -1 -2 -2 -2 -2 -2 -2 -1 -1 -1 -1 -1 -1 -1 -1 -1 -0 -0 -0 -0 -0 -0 -0 -0 -0 -0 -0 -0 -1 -1 -0 -0 -0 -0 -0 -0 -1 -1 -1 -1 -1 -1 -1 -1 -1 -1 -1 -1 -1 -0 -0 -0 -0 -0 -0 -0 -0
Height
1495 1496 1496 1496 1497 1497 1498 1498 1498 1499 1499 1500 1500 1501 1501 1501 1502 1502 1503 1503 1504 1504 1504 1504 1505 1505 1505 1505 1505 1505 1505 1505 1505 1505 1505 1505 1506 1505 1505 1504 1504 1504 1504 1504 1503 1503 1503 1503 1503 1502 1502 1501 1501 1500 1500 1500 1500 1500 1500 1499 1499 1498 1497 1496 1496 1497 1498 1499 1500
1494 1495 1495 1495 1496 1496 1496 1497 1497 1498 1498 1499 1499 1499 1500 1500 1501 1501 1501 1501 1502 1502 1503 1503 1503 1503 1504 1504 1504 1504 1504 1503 1503 1503 1503 1503 1503 1503 1503 1503 1503 1502 1502 1502 1502 1502 1501 1501 1501 1501 1500 1500 1499 1499 1498 1498 1498 1498 1497 1497 1496 1496 1496 1495 1495 1495 1496 1496 1497
1494 1494 1494 1495 1495 1495 1495 1496 1496 1496 1497 1497 1497 1498 1498 1499 1499 1499 1500 1500 1501 1501 1501 1501 1502 1502 1502 1502 1502 1502 1501 1501 1501 1501 1501 1501 1501 1502 1502 1501 1501 1501 1501 1500 1500 1500 1500 1499 1499 1498 1498 1497 1497 1496 1496 1496 1496 1496 1496 1495 1495 1494 1494 1494 1493 1493 1493 1493 1493
1494 1494 1494 1494 1494 1494 1494 1494 1495 1495 1495 1496 1496 1496 1496 1497 1497 1498 1498 1499 1499 1500 1500 1500 1501 1501 1501 1501 1501 1501 1500 1500 1499 1499 1500 1500 1501 1501 1501 1500 1500 1499 1499 1499 1498 1498 1497 1497 1497 1496 1496 1496 1495 1495 1495 1495 1495 1494 1494 1493 1493 1493 1493 1492 1492 1492 1491 1491 1491
1493 1493 1493 1493 1493 1493 1493 1493 1494 1494 1494 1494 1495 1495 1496 1496 1496 1497 1497 1498 1498 1499 1499 1499 1499 1499 1500 1500 1500 1499 1498 1498 1498 1498 1499 1499 1499 1499 1499 1498 1498 1498 1497 1497 1496 1496 1496 1495 1495 1494 1494 1494 1493 1493 1493 1493 1492 1492 1491 1491 1491 1491 1491 1490 1490 1490 1489 1489 1489
1491 1492 1492 1492 1492 1492 1493 1493 1493 1493 1494 1494 1494 1495 1495 1495 1495 1496 1496 1496 1497 1497 1498 1498 1498 1498 1497 1498 1497 1497 1496 1496 1497 1497 1497 1497 1497 1497 1497 1496 1496 1496 1496 1495 1495 1494 1494 1493 1493 1492 1492 1492 1491 1491 1491 1491 1490 1490 1489 1489 1489 1488 1488 1488 1487 1487 1487 1487 1486
1491 1491 1491 1491 1492 1492 1492 1493 1493 1493 1493 1494 1494 1494 1494 1494 1494 1494 1495 1495 1495 1496 1496 1496 1496 1495 1495 1496 1496 1496 1495 1495 1496 1496 1496 1496 1496 1496 1495 1495 1495 1495 1494 1494 1493 1492 1492 1492 1491 1491 1490 1490 1490 1489 1489 1489 1488 1487 1487 1487 1486 1486 1486 1485 1485 1485 1485 1485 1485
1491 1491 1491 1491 1491 1491 1492 1492 1492 1492 1493 1493 1493 1493 1492 1492 1492 1492 1493 1493 1494 1494 1494 1494 1493 1493 1493 1494 1494 1494 1493 1493 1494 1494 1494 1494 1494 1494 1493 1493 1493 1493 1492 1492 1491 1491 1491 1490 1490 1489 1489 1488 1488 1487 1487 1487 1486 1486 1486 1485 1485 1484 1484 1484 1483 1483 1483 1483 1483
1490 1490 1490 1490 1491 1491 1491 1491 1491 1491 1491 1491 1491 1491 1490 1490 1491 1491 1491 1491 1492 1492 1492 1492 1491 1491 1492 1493 1492 1492 1491 1491 1492 1492 1492 1492 1492 1491 1491 1491 1491 1491 1490 1490 1490 1489 1489 1489 1488 1488 1487 1487 1486 1486 1486 1486 1485 1485 1484 1484 1483 1483 1483 1482 1482 1481 1481 1481 1481
1489 1489 1489 1489 1490 1490 1490 1490 1490 1490 1489 1489 1489 1488 1489 1489 1490 1490 1490 1490 1491 1491 1491 1491 1491 1491 1491 1491 1491 1491 1491 1490 1490 1490 1490 1490 1490 1490 1489 1489 1489 1488 1488 1488 1488 1488 1488 1487 1487 1487 1486 1486 1485 1485 1485 1484 1484 1483 1483 1482 1482 1481 1481 1481 1481 1480 1479 1479 1478
1488 1488 1488 1488 1488 1488 1488 1488 1487 1487 1487 1487 1487 1488 1488 1489 1489 1489 1489 1489 1489 1489 1489 1489 1489 1489 1490 1490 1490 1490 1489 1489 1489 1488 1488 1488 1488 1488 1487 1487 1487 1487 1486 1486 1486 1486 1486 1486 1486 1486 1485 1484 1484 1483 1483 1482 1482 1481 1481 1480 1480 1480 1480 1479 1479 1478 1478 1477 1477
1486 1486 1486 1487 1487 1486 1486 1486 1486 1486 1486 1486 1487 1487 1487 1488 1488 1488 1488 1488 1488 1487 1487 1487 1487 1488 1488 1488 1488 1488 1487 1487 1487 1487 1486 1486 1486 1486 1486 1486 1486 1485 1485 1485 1485 1485 1485 1484 1484 1484 1483 1483 1482 1482 1481 1481 1481 1480 1479 1478 1478 1477 1478 1477 1477 1477 1476 1476 1476
1485 1485 1485 1485 1485 1485 1485 1485 1485 1485 1486 1486 1486 1486 1486 1486 1486 1486 1486 1486 1486 1486 1486 1486 1486 1486 1486 1486 1486 1486 1485 1485 1485 1485 1485 1484 1484 1484 1484 1484 1484 1484 1484 1483 1483 1483 1483 1482 1482 1481 1481 1481 1481 1480 1480 1479 1479 1478 1477 1476 1475 1475 1475 1476 1476 1476 1475 1475 1475
1484 1484 1484 1484 1484 1484 1484 1484 1484 1484 1484 1485 1485 1485 1485 1485 1485 1485 1485 1485 1484 1484 1484 1484 1484 1484 1484 1484 1484 1484 1483 1483 1483 1483 1483 1483 1482 1482 1482 1482 1482 1482 1482 1481 1481 1481 1481 1480 1480 1480 1480 1479 1479 1479 1478 1478 1477 1477 1476 1474 1473 1472 1472 1473 1474 1474 1474 1474 1473
1482 1483 1483 1483 1483 1483 1483 1483 1483 1483 1483 1483 1483 1483 1483 1483 1483 1483 1483 1483 1483 1482 1482 1482 1482 1482 1482 1482 1482 1482 1482 1481 1481 1481 1481 1481 1481 1481 1481 1481 1481 1480 1480 1480 1480 1479 1479 1479 1478 1478 1478 1478 1478 1477 1477 1477 1476 1476 1475 1473 1472 1471 1471 1471 1472 1472 1473 1472 1472
1481 1482 1482 1482 1482 1481 1481 1481 1481 1482 1482 1482 1481 1481 1481 1481 1481 1481 1481 1481 1481 1481 1481 1481 1481 1481 1481 1481 1480 1480 1480 1480 1480 1480 1480 1480 1480 1480 1480 1479 1479 1479 1479 1479 1478 1478 1478 1478 1477 1477 1477 1476 1476 1476 1476 1476 1475 1475 1474 1472 1471 1470 1469 1469 1470 1471 1471 1471 1471
1481 1481 1481 1481 1481 1480 1480 1480 1480 1480 1480 1480 1480 1480 1480 1480 1480 1480 1480 1480 1479 1479 1479 1479 1479 1479 1479 1479 1479 1479 1479 1479 1479 1479 1479 1479 1479 1478 1478 1478 1478 1478 1478 1478 1477 1477 1477 1477 1476 1476 1476 1475 1475 1475 1475 1475 1474 1474 1473 1472 1470 1469 1468 1468 1468 1469 1469 1470 1470
1480 1479 1479 1479 1479 1479 1479 1479 1479 1479 1479 1479 1479 1479 1478 1478 1478 1478 1478 1478 1478 1478 1478 1478 1478 1478 1478 1478 1478 1478 1478 1478 1478 1478 1478 1477 1477 1477 1477 1477 1477 1477 1476 1476 1476 1476 1476 1476 1475 1475 1475 1474 1474 1474 1474 1474 1473 1473 1472 1471 1469 1468 1468 1467 1467 1468 1468 1469 1469
1478 1478 1478 1478 1478 1478 1478 1478 1478 1478 1478 1478 1478 1477 1477 1477 1477 1476 1476 1476 1476 1476 1476 1476 1476 1476 1476 1476 1476 1476 1476 1476 1476 1476 1476 1476 1476 1476 1476 1476 1476 1476 1476 1475 1475 1475 1474 1474 1474 1474 1473 1473 1473 1473 1473 1473 1472 1472 1471 1470 1468 1468 1467 1467 1467 1467 1468 1468 1468
1477 1477 1477 1477 1477 1476 1476 1476 1477 1476 1476 1476 1476 1476 1476 1476 1476 1476 1476 1475 1475 1475 1475 1475 1475 1475 1475 1475 1475 1475 1475 1475 1475 1475 1475 1475 1475 1475 1475 1475 1475 1475 1474 1474 1474 1473 1473 1473 1473 1472 1472 1472 1472 1472 1472 1471 1471 1471 1470 1469 1468 1467 1467 1466 1466 1466 1466 1467 1467
1476 1476 1476 1476 1476 1476 1476 1476 1476 1476 1475 1475 1475 1475 1475 1475 1475 1475 1475 1475 1475 1475 1475 1474 1474 1474 1474 1474 1474 1474 1474 1474 1474 1474 1474 1474 1474 1474 1474 1474 1473 1473 1473 1473 1473 1473 1472 1472 1472 1471 1471 1471 1471 1471 1471 1470 1470 1469 1469 1468 1467 1466 1466 1466 1466 1466 1466 1466 1466
1475 1475 1475 1475 1475 1475 1475 1474 1474 1474 1474 1474 1474 1474 1474 1474 1474 1474 1474 1474 1474 1474 1474 1474 1474 1473 1473 1473 1474 1474 1474 1474 1474 1474 1473 1473 1473 1473 1473 1472 1472 1472 1472 1472 1472 1472 1471 1471 1471 1471 1471 1471 1470 1470 1470 1469 1469 1468 1468 1467 1466 1466 1465 1465 1465 1465 1465 1466 1466
1474 1474 1474 1474 1474 1474 1474 1474 1474 1474 1474 1474 1474 1474 1474 1474 1474 1474 1474 1474 1474 1474 1473 1473 1473 1473 1473 1473 1473 1473 1473 1473 1473 1473 1473 1473 1472 1472 1472 1472 1472 1472 1471 1471 1471 1471 1471 1471 1470 1470 1470 1470 1470 1469 1469 1468 1468 1467 1467 1466 1465 1465 1464 1464 1465 1465 1466 1466 1466
1474 1473 1473 1473 1473 1473 1473 1473 1473 1473 1473 1473 1473 1473 1473 1473 1473 1473 1473 1473 1473 1473 1473 1472 1472 1472 1472 1472 1472 1472 1473 1473 1473 1472 1472 1472 1472 1471 1471 1471 1471 1471 1471 1471 1471 1471 1470 1470 1470 1470 1470 1469 1469 1468 1468 1468 1467 1467 1466 1466 1465 1465 1465 1465 1465 1465 1466 1466 1466
1473 1473 1473 1473 1473 1473 1473 1473 1473 1473 1473 1473 1473 1473 1473 1473 1473 1472 1472 1472 1472 1472 1472 1472 1471 1471 1471 1472 1472 1472 1472 1472 1472 1472 1471 1471 1471 1471 1471 1471 1471 1471 1471 1471 1471 1470 1470 1470 1470 1469 1469 1469 1468 1468 1468 1468 1467 1467 1467 1466 1466 1466 1466 1466 1466 1466 1466 1466 1466
1472 1472 1472 1472 1472 1472 1472 1472 1472 1472 1472 1472 1472 1472 1472 1472 1472 1471 1471 1471 1471 1471 1471 1471 1471 1471 1471 1471 1471 1471 1471 1471 1471 1471 1471 1471 1471 1471 1471 1471 1471 1471 1470 1470 1470 1470 1470 1470 1469 1469 1469 1468 1468 1468 1468 1468 1468 1468 1467 1467 1467 1466 1466 1466 1466 1466 1466 1466 1467
1472 1472 1472 1472 1472 1472 1472 1472 1472 1472 1472 1472 1472 1471 1471 1471 1471 1471 1471 1471 1470 1470 1470 1470 1470 1471 1471 1471 1471 1471 1471 1471 1471 1471 1471 1471 1470 1470 1470 1470 1470 1470 1470 1470 1470 1470 1470 1469 1469 1469 1469 1469 1469 1469 1468 1468 1468 1468 1468 1468 1467 1467 1467 1466 1466 1466 1466 1467 1467
1472 1472 1471 1471 1471 1471 1471 1471 1471 1471 1471 1471 1471 1471 1471 1471 1471 1470 1470 1470 1470 1470 1470 1470 1470 1470 1470 1470 1470 1470 1470 1470 1470 1470 1470 1470 1470 1470 1470 1470 1470 1470 1470 1470 1470 1470 1470 1470 1470 1469 1469 1469 1469 1469 1469 1469 1469 1468 1468 1468 1468 1467 1467 1467 1467 1467 1467 1467 1468
1471 1471 1471 1471 1471 1471 1471 1471 1471 1471 1471 1471 1471 1471 1471 1470 1470 1470 1470 1470 1470 1469 1469 1470 1470 1470 1470 1470 1470 1470 1470 1470 1470 1470 1470 1470 1470 1470 1470 1470 1470 1470 1470 1471 1471 1471 1471 1470 1470 1470 1470 1470 1470 1469 1469 1469 1469 1469 1469 1469 1468 1468 1468 1468 1468 1468 1468 1468 1468
1471 1471 1471 1471 1471 1471 1471 1471 1471 1471 1471 1471 1471 1471 1470 1470 1470 1470 1470 1470 1469 1469 1469 1470 1470 1470 1470 1470 1470 1470 1470 1470 1470 1470 1470 1470 1471 1471 1471 1471 1470 1471 1471 1471 1471 1471 1471 1471 1471 1471 1470 1470 1470 1470 1470 1470 1469 1469 1469 1469 1469 1469 1469 1469 1468 1468 1468 1469 1469
1471 1471 1471 1471 1471 1471 1471 1471 1471 1471 1471 1470 1470 1470 1470 1470 1470 1470 1470 1470 1469 1469 1470 1470 1470 1470 1470 1470 1470 1470 1470 1470 1470 1470 1471 1471 1471 1471 1471 1471 1471 1471 1471 1471 1471 1471 1471 1471 1471 1471 1471 1471 1471 1471 1470 1470 1470 1470 1470 1470 1470 1470 1469 1469 1469 1469 1469 1469 1469
1470 1470 1470 1470 1470 1470 1470 1470 1470 1470 1470 1470 1470 1470 1470 1470 1470 1470 1470 1469 1469 1469 1469 1469 1470 1470 1470 1470 1470 1470 1470 1470 1471 1471 1471 1471 1471 1471 1471 1471 1471 1471 1472 1472 1472 1472 1472 1472 1472 1471 1471 1471 1471 1471 1471 1471 1471 1471 1471 1471 1470 1470 1470 1470 1469 1469 1469 1469 1469
1470 1470 1470 1470 1470 1470 1470 1470 1470 1470 1470 1470 1470 1470 1470 1470 1469 1469 1469 1469 1469 1469 1470 1470 1470 1470 1470 1470 1471 1471 1471 1471 1471 1472 1472 1472 1472 1472 1472 1472 1472 1472 1472 1473 1473 1473 1473 1472 1472 1472 1472 1472 1472 1472 1472 1472 1471 1471 1471 1471 1470 1470 1470 1469 1469 1469 1469 1469 1469
1470 1470 1470 1470 1470 1470 1470 1470 1470 1470 1470 1470 1470 1470 1469 1469 1469 1469 1469 1470 1470 1470 1470 1470 1471 1471 1471 1471 1471 1471 1472 1472 1472 1473 1473 1473 1473 1473 1473 1473 1473 1473 1473 1473 1473 1473 1473 1473 1473 1473 1473 1473 1472 1472 1472 1471 1471 1471 1470 1470 1470 1469 1469 1469 1469 1468 1468 1468 1468
1470 1470 1470 1470 1470 1470 1470 1470 1470 1470 1470 1470 1470 1470 1470 1470 1470 1470 1470 1471 1471 1471 1471 1471 1471 1471 1472 1472 1472 1473 1473 1473 1473 1473 1474 1474 1474 1474 1474 1474 1474 1474 1474 1474 1473 1473 1473 1473 1473 1473 1473 1472 1472 1472 1471 1471 1471 1470 1470 1469 1469 1469 1469 1468 1468 1468 1468 1468 1467
1470 1470 1470 1470 1470 1470 1470 1470 1470 1470 1470 1470 1470 1470 1470 1470 1471 1471 1471 1471 1471 1471 1471 1472 1472 1472 1473 1473 1473 1473 1474 1474 1474 1474 1474 1474 1474 1474 1474 1474 1474 1474 1474 1474 1473 1473 1473 1473 1473 1473 1472 1472 1472 1471 1471 1471 1470 1470 1470 1469 1469 1469 1469 1468 1468 1468 1468 1467 1467
1470 1470 1470 1470 1470 1470 1470 1470 1470 1470 1470 1470 1470 1470 1471 1471 1471 1471 1472 1472 1472 1472 1472 1473 1473 1473 1473 1474 1474 1474 1474 1474 1474 1474 1475 1475 1475 1474 1474 1474 1474 1474 1474 1474 1474 1473 1473 1473 1473 1473 1472 1472 1472 1471 1471 1471 1470 1470 1470 1469 1469 1469 1468 1468 1468 1467 1467 1467 1466
1470 1470 1470 1470 1470 1470 1470 1470 1470 1470 1470 1470 1471 1471 1471 1471 1471 1472 1472 1473 1473 1473 1473 1473 1474 1474 1474 1474 1474 1475 1475 1475 1475 1475 1475 1475 1475 1475 1475 1474 1474 1474 1474 1474 1474 1473 1473 1473 1473 1473 1472 1472 1472 1471 1471 1471 1470 1470 1469 1469 1469 1468 1468 1468 1467 1467 1467 1466 1466
1470 1470 1470 1470 1470 1470 1470 1471 1471 1471 1471 1471 1471 1471 1472 1472 1472 1473 1473 1474 1474 1474 1474 1474 1474 1475 1475 1475 1475 1475 1475 1475 1475 1475 1475 1475 1475 1475 1475 1475 1474 1474 1474 1474 1474 1474 1473 1473 1473 1473 1473 1472 1472 1471 1471 1471 1470 1470 1469 1469 1468 1468 1467 1467 1467 1467 1466 1466 1466
1470 1470 1471 1471 1471 1471 1471 1471 1471 1471 1472 1472 1472 1472 1473 1473 1473 1474 1474 1475 1475 1475 1475 1475 1475 1475 1475 1476 1476 1476 1476 1476 1476 1476 1476 1475 1475 1475 1475 1475 1475 1474 1474 1474 1474 1474 1474 1473 1473 1473 1472 1472 1472 1471 1471 1470 1470 1469 1469 1468 1468 1468 1467 1467 1467 1466 1466 1466 1466
1471 1471 1471 1471 1471 1471 1472 1472 1472 1472 1473 1473 1473 1474 1474 1474 1475 1475 1475 1475 1476 1476 1476 1476 1476 1476 1476 1476 1476 1476 1476 1476 1476 1476 1476 1476 1476 1475 1475 1475 1475 1475 1474 1474 1474 1474 1474 1473 1473 1473 1472 1472 1471 1471 1471 1470 1470 1469 1468 1468 1468 1467 1467 1467 1466 1466 1466 1466 1465